Terminal Aerodrome Forecast
Issued by NWS Tallahassee, FL

Home | Current Version | Previous Version | Text Only | Print | Product List | Glossary On
Versions: 1 2 3 4 5 6 7 8 9 10 11 12 13 14 15 16 17 18 19 20 21 22 23 24 25 26 27 28 29
000
FTUS42 KTAE 052300
TAFTLH
TAF
KTLH 052340Z 0600/0624 33008KT P6SM BKN012 BKN040 BKN070
     FM060500 35009KT P6SM OVC017
     FM061400 01009KT P6SM OVC022
     FM062000 01007KT P6SM SCT025=

USA.gov is the U.S. government's official web portal to all federal, state and local government web resources and services.